This is the latest recevied weather packets stored in our database for station/object SR3WXA. If no packets are shown the sender has not sent any weather packets the latest 10 day(s).
| Time | Temp. | Humidity | Pressure | Rain* | Wind** | Luminosity | Snow |
|---|---|---|---|---|---|---|---|
| 1777706749 | 19.44° C | 51% | 1025.3 hPa | 0 mm | - | 272 W/m² | - |
| 1777706449 | 18.89° C | 51% | 1025.3 hPa | 0 mm | - | 292 W/m² | - |
| 1777706149 | 18.89° C | 52% | 1025.3 hPa | 0 mm | - | 33 W/m² | - |
| 1777705883 | 18.89° C | 53% | 1025.3 hPa | 0 mm | - | 392 W/m² | - |
| 1777705849 | 18.89° C | 53% | 1025.3 hPa | 0 mm | - | 392 W/m² | - |
| 1777705549 | 18.33° C | 54% | 1025.3 hPa | 0 mm | - | 399 W/m² | - |
| 1777705249 | 17.78° C | 54% | 1025.3 hPa | 0 mm | - | 33 W/m² | - |
| 1777704993 | 17.78° C | 54% | 1025.4 hPa | 0 mm | - | 37 W/m² | - |
| 1777704949 | 17.78° C | 54% | 1025.4 hPa | 0 mm | - | 37 W/m² | - |
| 1777704649 | 17.22° C | 55% | 1025.4 hPa | 0 mm | - | 37 W/m² | - |
| 1777704104 | 16.67° C | 56% | 1025.4 hPa | 0 mm | - | 302 W/m² | - |
| 1777704059 | 16.67° C | 56% | 1025.4 hPa | 0 mm | - | 302 W/m² | - |
| 1777703790 | 16.67° C | 56% | 1025.4 hPa | 0 mm | - | 35 W/m² | - |
| 1777703759 | 16.67° C | 56% | 1025.4 hPa | 0 mm | - | 35 W/m² | - |
| 1777703460 | 16.67° C | 58% | 1025.5 hPa | 0 mm | - | 241 W/m² | - |
| 1777703191 | 16.11° C | 58% | 1025.5 hPa | 0 mm | - | 33 W/m² | - |
| 1777703159 | 16.11° C | 58% | 1025.5 hPa | 0 mm | - | 33 W/m² | - |
| 1777702860 | 16.11° C | 59% | 1025.6 hPa | 0 mm | - | 258 W/m² | - |
| 1777702591 | 15.56° C | 59% | 1025.5 hPa | 0 mm | - | 244 W/m² | - |
| 1777702559 | 15.56° C | 59% | 1025.5 hPa | 0 mm | - | 244 W/m² | - |
| 1777702259 | 15.56° C | 61% | 1025.6 hPa | 0 mm | - | 204 W/m² | - |
| 1777702002 | 15° C | 61% | 1025.6 hPa | 0 mm | - | 253 W/m² | - |
| 1777701960 | 15° C | 61% | 1025.6 hPa | 0 mm | - | 253 W/m² | - |
| 1777701659 | 15° C | 62% | 1025.5 hPa | 0 mm | - | 250 W/m² | - |
| 1777701391 | 14.44° C | 63% | 1025.5 hPa | 0 mm | - | 199 W/m² | - |
* Rain latest hour (hover to see other rain measurements)
** Current wind speed in m/s (hover to see current wind gust speed)